Time,TemperatureF,DewpointF,PressureIn,WindDirection,WindDirectionDegrees,WindSpeedMPH,WindSpeedGustMPH,Humidity,HourlyPrecipIn,Conditions,Clouds,dailyrainin,SoftwareType,DateUTC
2013-04-14 00:00:00,45.0,19.6,29.96,WNW,292,1.0,12.0,36,-0.06,,,0.00,Weather View 32 v70,2013-04-14 04:00:00,
2013-04-14 00:05:00,45.0,20.3,29.96,West,270,1.0,12.0,37,-0.06,,,0.00,Weather View 32 v70,2013-04-14 04:05:00,
2013-04-14 00:10:00,45.0,20.3,29.96,West,270,1.0,12.0,37,-0.06,,,0.00,Weather View 32 v70,2013-04-14 04:10:00,
2013-04-14 00:15:00,45.0,20.9,29.96,WSW,247,0.0,12.0,38,-0.06,,,0.00,Weather View 32 v70,2013-04-14 04:15:00,
2013-04-14 00:20:00,45.0,21.5,29.97,WSW,247,1.0,12.0,39,-0.06,,,0.00,Weather View 32 v70,2013-04-14 04:20:00,
2013-04-14 00:25:00,45.0,23.3,29.97,WSW,247,1.0,12.0,42,-0.06,,,0.00,Weather View 32 v70,2013-04-14 04:25:00,
2013-04-14 00:30:00,45.0,23.8,29.97,WSW,247,0.0,12.0,43,-0.06,,,0.00,Weather View 32 v70,2013-04-14 04:30:00,
2013-04-14 00:35:00,45.0,23.8,29.97,WSW,247,1.0,12.0,43,-0.06,,,0.00,Weather View 32 v70,2013-04-14 04:35:00,
2013-04-14 00:40:00,45.0,23.8,29.97,WSW,247,0.0,12.0,43,-0.06,,,0.00,Weather View 32 v70,2013-04-14 04:40:00,
2013-04-14 00:45:00,45.0,24.4,29.97,WSW,247,0.0,12.0,44,-0.06,,,0.00,Weather View 32 v70,2013-04-14 04:45:00,
2013-04-14 00:50:00,45.0,24.9,29.97,WSW,247,0.0,7.0,45,-0.06,,,0.00,Weather View 32 v70,2013-04-14 04:50:00,
2013-04-14 00:55:00,45.0,24.4,29.96,WSW,247,0.0,6.0,44,-0.06,,,0.00,Weather View 32 v70,2013-04-14 04:55:00,
2013-04-14 01:00:00,45.0,23.8,29.96,WSW,247,0.0,6.0,43,0.00,,,0.00,Weather View 32 v70,2013-04-14 05:00:00,
2013-04-14 01:05:00,45.0,24.4,29.96,WSW,247,0.0,4.0,44,0.00,,,0.00,Weather View 32 v70,2013-04-14 05:05:00,
2013-04-14 01:10:00,45.0,23.8,29.96,WSW,247,0.0,4.0,43,0.00,,,0.00,Weather View 32 v70,2013-04-14 05:10:00,
2013-04-14 01:15:00,45.0,23.8,29.95,SE,135,0.0,4.0,43,0.00,,,0.00,Weather View 32 v70,2013-04-14 05:15:00,
2013-04-14 01:20:00,44.0,22.3,29.95,ENE,67,0.0,4.0,42,0.00,,,0.00,Weather View 32 v70,2013-04-14 05:20:00,
2013-04-14 01:25:00,44.0,22.9,29.95,ENE,67,0.0,4.0,43,0.00,,,0.00,Weather View 32 v70,2013-04-14 05:25:00,
2013-04-14 01:30:00,44.0,21.8,29.94,ENE,67,0.0,4.0,41,0.00,,,0.00,Weather View 32 v70,2013-04-14 05:30:00,
2013-04-14 01:35:00,44.0,22.3,29.94,ENE,67,0.0,4.0,42,0.00,,,0.00,Weather View 32 v70,2013-04-14 05:35:00,
2013-04-14 01:40:00,44.0,22.3,29.93,ENE,67,0.0,4.0,42,0.00,,,0.00,Weather View 32 v70,2013-04-14 05:40:00,
2013-04-14 01:45:00,43.0,18.5,29.93,ENE,67,0.0,4.0,37,0.00,,,0.00,Weather View 32 v70,2013-04-14 05:45:00,
2013-04-14 01:50:00,43.0,18.5,29.93,ENE,67,0.0,4.0,37,0.00,,,0.00,Weather View 32 v70,2013-04-14 05:50:00,
2013-04-14 01:55:00,43.0,19.7,29.93,ENE,67,0.0,4.0,39,0.00,,,0.00,Weather View 32 v70,2013-04-14 05:55:00,
2013-04-14 02:00:00,43.0,20.3,29.93,ENE,67,0.0,4.0,40,0.00,,,0.00,Weather View 32 v70,2013-04-14 06:00:00,
2013-04-14 02:05:00,43.0,19.1,29.93,ENE,67,0.0,4.0,38,0.00,,,0.00,Weather View 32 v70,2013-04-14 06:05:00,
2013-04-14 02:10:00,42.0,17.6,29.93,ENE,67,0.0,4.0,37,0.00,,,0.00,Weather View 32 v70,2013-04-14 06:10:00,
2013-04-14 02:15:00,42.0,17.6,29.93,ENE,67,0.0,4.0,37,0.00,,,0.00,Weather View 32 v70,2013-04-14 06:15:00,
2013-04-14 02:20:00,41.0,11.1,29.93,ENE,67,2.0,2.0,29,0.00,,,0.00,Weather View 32 v70,2013-04-14 06:20:00,
2013-04-14 02:25:00,41.0,8.7,29.93,ENE,67,0.0,2.0,26,0.00,,,0.00,Weather View 32 v70,2013-04-14 06:25:00,
2013-04-14 02:30:00,40.0,7.8,29.93,ENE,67,0.0,2.0,26,0.00,,,0.00,Weather View 32 v70,2013-04-14 06:30:00,
2013-04-14 02:35:00,40.0,6.1,29.93,ENE,67,0.0,2.0,24,0.00,,,0.00,Weather View 32 v70,2013-04-14 06:35:00,
2013-04-14 02:40:00,40.0,-0.1,29.93,ENE,67,0.0,3.0,18,0.00,,,0.00,Weather View 32 v70,2013-04-14 06:40:00,
2013-04-14 02:45:00,40.0,1.0,29.93,ENE,67,0.0,3.0,19,0.00,,,0.00,Weather View 32 v70,2013-04-14 06:45:00,
2013-04-14 02:50:00,39.0,1.3,29.94,ENE,67,0.0,3.0,20,0.00,,,0.00,Weather View 32 v70,2013-04-14 06:50:00,
2013-04-14 02:55:00,39.0,3.3,29.94,ENE,67,0.0,3.0,22,0.00,,,0.00,Weather View 32 v70,2013-04-14 06:55:00,
2013-04-14 03:00:00,38.0,4.4,29.93,ENE,67,0.0,3.0,24,0.00,,,0.00,Weather View 32 v70,2013-04-14 07:00:00,
2013-04-14 03:05:00,38.0,4.4,29.93,ENE,67,0.0,3.0,24,0.00,,,0.00,Weather View 32 v70,2013-04-14 07:05:00,
2013-04-14 03:10:00,38.0,-5.6,29.92,ENE,67,0.0,3.0,15,0.00,,,0.00,Weather View 32 v70,2013-04-14 07:10:00,
2013-04-14 03:15:00,38.0,-15.9,29.93,ENE,67,0.0,3.0,9,0.00,,,0.00,Weather View 32 v70,2013-04-14 07:15:00,
2013-04-14 03:20:00,38.0,-11.9,29.93,ENE,67,0.0,3.0,11,0.00,,,0.00,Weather View 32 v70,2013-04-14 07:20:00,
2013-04-14 03:25:00,38.0,-15.9,29.93,ENE,67,0.0,3.0,9,0.00,,,0.00,Weather View 32 v70,2013-04-14 07:25:00,
2013-04-14 03:30:00,38.0,-15.9,29.93,ENE,67,0.0,3.0,9,0.00,,,0.00,Weather View 32 v70,2013-04-14 07:30:00,
2013-04-14 03:35:00,38.0,-15.9,29.93,ENE,67,0.0,3.0,9,0.00,,,0.00,Weather View 32 v70,2013-04-14 07:35:00,
2013-04-14 03:40:00,38.0,-15.9,29.92,ENE,67,0.0,2.0,9,0.00,,,0.00,Weather View 32 v70,2013-04-14 07:40:00,
2013-04-14 03:45:00,38.0,-18.2,29.93,ENE,67,0.0,2.0,8,0.00,,,0.00,Weather View 32 v70,2013-04-14 07:45:00,
2013-04-14 03:50:00,38.0,-20.7,29.93,ENE,67,0.0,2.0,7,0.00,,,0.00,Weather View 32 v70,2013-04-14 07:50:00,
2013-04-14 03:55:00,38.0,-23.7,29.93,ENE,67,0.0,2.0,6,0.00,,,0.00,Weather View 32 v70,2013-04-14 07:55:00,
2013-04-14 04:00:00,38.0,-23.7,29.93,ENE,67,0.0,2.0,6,0.00,,,0.00,Weather View 32 v70,2013-04-14 08:00:00,
2013-04-14 04:05:00,38.0,-31.1,29.94,ENE,67,0.0,2.0,4,0.00,,,0.00,Weather View 32 v70,2013-04-14 08:05:00,
2013-04-14 04:10:00,38.0,-31.1,29.94,ENE,67,0.0,1.0,4,0.00,,,0.00,Weather View 32 v70,2013-04-14 08:10:00,
2013-04-14 04:15:00,38.0,-31.1,29.94,ENE,67,0.0,0.0,4,0.00,,,0.00,Weather View 32 v70,2013-04-14 08:15:00,
2013-04-14 04:20:00,38.0,-31.1,29.94,ENE,67,0.0,0.0,4,0.00,,,0.00,Weather View 32 v70,2013-04-14 08:20:00,
2013-04-14 04:25:00,39.0,-30.4,29.94,ENE,67,0.0,0.0,4,0.00,,,0.00,Weather View 32 v70,2013-04-14 08:25:00,
2013-04-14 04:30:00,39.0,-30.4,29.94,ENE,67,0.0,0.0,4,0.00,,,0.00,Weather View 32 v70,2013-04-14 08:30:00,
2013-04-14 04:35:00,39.0,-42.6,29.95,ENE,67,0.0,0.0,2,0.00,,,0.00,Weather View 32 v70,2013-04-14 08:35:00,
2013-04-14 04:41:00,39.0,-42.6,29.94,ENE,67,0.0,0.0,2,0.00,,,0.00,Weather View 32 v70,2013-04-14 08:41:00,
2013-04-14 04:46:00,39.0,-54.0,29.95,ENE,67,0.0,0.0,1,0.05,,,0.00,Weather View 32 v70,2013-04-14 08:46:00,
2013-04-14 04:51:00,39.0,-54.0,29.95,ENE,67,0.0,0.0,1,0.00,,,0.00,Weather View 32 v70,2013-04-14 08:51:00,
2013-04-14 04:56:00,39.0,-42.6,29.95,ENE,67,0.0,0.0,2,0.00,,,0.00,Weather View 32 v70,2013-04-14 08:56:00,
2013-04-14 05:01:00,39.0,-42.6,29.95,ENE,67,0.0,0.0,2,0.00,,,0.00,Weather View 32 v70,2013-04-14 09:01:00,
2013-04-14 05:06:00,39.0,-42.6,29.95,ENE,67,0.0,0.0,2,0.00,,,0.00,Weather View 32 v70,2013-04-14 09:06:00,
2013-04-14 05:11:00,39.0,-42.6,29.95,ENE,67,0.0,0.0,2,0.00,,,0.00,Weather View 32 v70,2013-04-14 09:11:00,
2013-04-14 05:16:00,39.0,-35.6,29.95,ENE,67,0.0,0.0,3,0.00,,,0.00,Weather View 32 v70,2013-04-14 09:16:00,
2013-04-14 05:21:00,39.0,-35.6,29.95,ENE,67,0.0,0.0,3,0.00,,,0.00,Weather View 32 v70,2013-04-14 09:21:00,
2013-04-14 05:26:00,39.0,-35.6,29.95,ENE,67,0.0,0.0,3,0.00,,,0.00,Weather View 32 v70,2013-04-14 09:26:00,
2013-04-14 05:31:00,39.0,-35.6,29.95,ENE,67,0.0,0.0,3,0.00,,,0.00,Weather View 32 v70,2013-04-14 09:31:00,
2013-04-14 05:36:00,39.0,-35.6,29.95,ENE,67,0.0,0.0,3,0.00,,,0.00,Weather View 32 v70,2013-04-14 09:36:00,
2013-04-14 05:41:00,39.0,-35.6,29.95,ENE,67,0.0,0.0,3,0.00,,,0.00,Weather View 32 v70,2013-04-14 09:41:00,
2013-04-14 05:46:00,39.0,-35.6,29.95,ENE,67,0.0,0.0,3,0.00,,,0.00,Weather View 32 v70,2013-04-14 09:46:00,
2013-04-14 05:51:00,39.0,-30.4,29.95,ENE,67,0.0,0.0,4,0.00,,,0.00,Weather View 32 v70,2013-04-14 09:51:00,
2013-04-14 05:56:00,39.0,-35.6,29.95,ENE,67,0.0,0.0,3,0.00,,,0.00,Weather View 32 v70,2013-04-14 09:56:00,
2013-04-14 06:01:00,39.0,-35.6,29.96,ENE,67,0.0,0.0,3,0.00,,,0.00,Weather View 32 v70,2013-04-14 10:01:00,
2013-04-14 06:06:00,39.0,-35.6,29.96,ENE,67,0.0,0.0,3,0.00,,,0.00,Weather View 32 v70,2013-04-14 10:06:00,
2013-04-14 06:11:00,40.0,-34.9,29.96,ENE,67,0.0,0.0,3,0.00,,,0.00,Weather View 32 v70,2013-04-14 10:11:00,
2013-04-14 06:16:00,40.0,-34.9,29.96,ENE,67,0.0,0.0,3,0.00,,,0.00,Weather View 32 v70,2013-04-14 10:16:00,
2013-04-14 06:21:00,40.0,-34.9,29.96,ENE,67,0.0,2.0,3,0.00,,,0.00,Weather View 32 v70,2013-04-14 10:21:00,
2013-04-14 06:26:00,40.0,-34.9,29.96,ENE,67,0.0,2.0,3,0.00,,,0.00,Weather View 32 v70,2013-04-14 10:26:00,
2013-04-14 06:31:00,39.0,-30.4,29.96,ENE,67,0.0,2.0,4,0.00,,,0.00,Weather View 32 v70,2013-04-14 10:31:00,
2013-04-14 06:36:00,39.0,-30.4,29.96,ENE,67,0.0,2.0,4,0.00,,,0.00,Weather View 32 v70,2013-04-14 10:36:00,
2013-04-14 06:42:00,39.0,-26.3,29.96,ENE,67,0.0,2.0,5,0.00,,,0.00,Weather View 32 v70,2013-04-14 10:42:00,
2013-04-14 06:47:00,39.0,-30.4,29.96,ENE,67,0.0,2.0,4,0.00,,,0.00,Weather View 32 v70,2013-04-14 10:47:00,
2013-04-14 06:52:00,39.0,-30.4,29.96,ENE,67,0.0,2.0,4,0.00,,,0.00,Weather View 32 v70,2013-04-14 10:52:00,
2013-04-14 06:57:00,39.0,-30.4,29.97,ENE,67,0.0,2.0,4,0.00,,,0.00,Weather View 32 v70,2013-04-14 10:57:00,
2013-04-14 07:02:00,39.0,-30.4,29.97,ENE,67,0.0,2.0,4,0.00,,,0.00,Weather View 32 v70,2013-04-14 11:02:00,
2013-04-14 07:07:00,39.0,-30.4,29.97,ENE,67,0.0,2.0,4,0.00,,,0.00,Weather View 32 v70,2013-04-14 11:07:00,
2013-04-14 07:12:00,39.0,-30.4,29.97,ENE,67,0.0,2.0,4,0.00,,,0.00,Weather View 32 v70,2013-04-14 11:12:00,
2013-04-14 07:17:00,39.0,-42.6,29.97,ENE,67,0.0,2.0,2,0.00,,,0.00,Weather View 32 v70,2013-04-14 11:17:00,
2013-04-14 07:22:00,40.0,-53.3,29.98,ENE,67,0.0,1.0,1,0.00,,,0.00,Weather View 32 v70,2013-04-14 11:22:00,
2013-04-14 07:27:00,41.0,-13.6,29.98,West,270,4.0,4.0,9,0.00,,,0.00,Weather View 32 v70,2013-04-14 11:27:00,
2013-04-14 07:32:00,42.0,-5.3,29.99,WNW,292,0.0,5.0,13,0.00,,,0.00,Weather View 32 v70,2013-04-14 11:32:00,
2013-04-14 07:37:00,43.0,3.5,29.99,SSE,157,0.0,5.0,19,0.00,,,0.00,Weather View 32 v70,2013-04-14 11:37:00,
2013-04-14 07:42:00,43.0,14.4,29.99,WNW,292,1.0,5.0,31,0.00,,,0.00,Weather View 32 v70,2013-04-14 11:42:00,
2013-04-14 07:47:00,44.0,20.6,29.99,WSW,247,0.0,6.0,39,0.00,,,0.00,Weather View 32 v70,2013-04-14 11:47:00,
2013-04-14 07:52:00,44.0,18.7,29.99,South,180,1.0,6.0,36,0.00,,,0.00,Weather View 32 v70,2013-04-14 11:52:00,
2013-04-14 07:57:00,45.0,28.4,29.99,WNW,292,4.0,6.0,52,0.00,,,0.00,Weather View 32 v70,2013-04-14 11:57:00,
2013-04-14 08:02:00,45.0,33.9,29.99,SSE,157,1.0,6.0,65,0.00,,,0.00,Weather View 32 v70,2013-04-14 12:02:00,
2013-04-14 08:07:00,46.0,30.3,29.99,SSE,157,0.0,6.0,54,0.00,,,0.00,Weather View 32 v70,2013-04-14 12:07:00,
2013-04-14 08:12:00,46.0,32.0,29.99,West,270,0.0,6.0,58,0.00,,,0.00,Weather View 32 v70,2013-04-14 12:12:00,
2013-04-14 08:17:00,47.0,36.6,29.99,ENE,67,0.0,6.0,67,0.00,,,0.00,Weather View 32 v70,2013-04-14 12:17:00,
2013-04-14 08:22:00,47.0,38.8,30.00,WNW,292,2.0,6.0,73,0.00,,,0.00,Weather View 32 v70,2013-04-14 12:22:00,
2013-04-14 08:27:00,48.0,41.1,30.00,NNW,337,0.0,8.0,77,0.00,,,0.00,Weather View 32 v70,2013-04-14 12:27:00,
2013-04-14 08:32:00,48.0,40.1,30.01,WSW,247,1.0,8.0,74,0.00,,,0.00,Weather View 32 v70,2013-04-14 12:32:00,
2013-04-14 08:37:00,49.0,42.4,30.01,West,270,4.0,8.0,78,0.00,,,0.00,Weather View 32 v70,2013-04-14 12:37:00,
2013-04-14 08:42:00,49.0,41.4,30.01,SSW,202,0.0,8.0,75,0.00,,,0.00,Weather View 32 v70,2013-04-14 12:42:00,
2013-04-14 08:47:00,49.0,41.8,30.01,West,270,1.0,8.0,76,0.00,,,0.00,Weather View 32 v70,2013-04-14 12:47:00,
2013-04-14 08:52:00,49.0,41.8,30.01,WSW,247,2.0,8.0,76,0.00,,,0.00,Weather View 32 v70,2013-04-14 12:52:00,
2013-04-14 08:57:00,49.0,41.8,30.01,West,270,3.0,9.0,76,0.00,,,0.00,Weather View 32 v70,2013-04-14 12:57:00,
2013-04-14 09:02:00,49.0,41.8,30.01,East,90,3.0,9.0,76,0.00,,,0.00,Weather View 32 v70,2013-04-14 13:02:00,
2013-04-14 09:07:00,49.0,41.4,30.01,ESE,112,1.0,9.0,75,0.00,,,0.00,Weather View 32 v70,2013-04-14 13:07:00,
2013-04-14 09:12:00,50.0,43.1,30.01,WSW,247,0.0,9.0,77,0.00,,,0.00,Weather View 32 v70,2013-04-14 13:12:00,
2013-04-14 09:17:00,50.0,43.1,30.01,NW,315,1.0,9.0,77,0.00,,,0.00,Weather View 32 v70,2013-04-14 13:17:00,
2013-04-14 09:22:00,50.0,42.7,30.01,ENE,67,5.0,9.0,76,0.00,,,0.00,Weather View 32 v70,2013-04-14 13:22:00,
2013-04-14 09:27:00,50.0,42.7,30.01,West,270,0.0,9.0,76,0.00,,,0.00,Weather View 32 v70,2013-04-14 13:27:00,
2013-04-14 09:32:00,50.0,42.4,30.01,NW,315,1.0,9.0,75,0.00,,,0.00,Weather View 32 v70,2013-04-14 13:32:00,
2013-04-14 09:37:00,50.0,42.0,30.02,WNW,292,5.0,9.0,74,0.00,,,0.00,Weather View 32 v70,2013-04-14 13:37:00,
2013-04-14 09:42:00,49.0,40.7,30.02,East,90,4.0,9.0,73,0.00,,,0.00,Weather View 32 v70,2013-04-14 13:42:00,
2013-04-14 09:47:00,49.0,39.3,30.02,SW,225,3.0,16.0,69,0.00,,,0.00,Weather View 32 v70,2013-04-14 13:47:00,
2013-04-14 09:52:00,48.0,37.9,30.02,West,270,4.0,16.0,68,0.00,,,0.00,Weather View 32 v70,2013-04-14 13:52:00,
2013-04-14 09:57:00,48.0,39.4,30.02,ENE,67,0.0,16.0,72,0.00,,,0.00,Weather View 32 v70,2013-04-14 13:57:00,
2013-04-14 10:02:00,48.0,37.9,30.02,ENE,67,6.0,16.0,68,0.00,,,0.00,Weather View 32 v70,2013-04-14 14:02:00,
2013-04-14 10:07:00,47.0,36.6,30.03,West,270,7.0,16.0,67,0.00,,,0.00,Weather View 32 v70,2013-04-14 14:07:00,
2013-04-14 10:12:00,47.0,37.3,30.02,ENE,67,7.0,16.0,69,0.00,,,0.00,Weather View 32 v70,2013-04-14 14:12:00,
2013-04-14 10:17:00,47.0,36.6,30.02,WNW,292,3.0,16.0,67,0.00,,,0.00,Weather View 32 v70,2013-04-14 14:17:00,
2013-04-14 10:22:00,46.0,34.5,30.02,SSW,202,3.0,16.0,64,0.00,,,0.00,Weather View 32 v70,2013-04-14 14:22:00,
2013-04-14 10:27:00,46.0,36.0,30.03,East,90,0.0,16.0,68,0.00,,,0.00,Weather View 32 v70,2013-04-14 14:27:00,
2013-04-14 10:32:00,46.0,36.0,30.03,WNW,292,1.0,16.0,68,0.00,,,0.00,Weather View 32 v70,2013-04-14 14:32:00,
2013-04-14 10:37:00,46.0,36.4,30.03,WNW,292,3.0,16.0,69,0.00,,,0.00,Weather View 32 v70,2013-04-14 14:37:00,
2013-04-14 10:42:00,46.0,38.2,30.03,West,270,2.0,16.0,74,0.00,,,0.00,Weather View 32 v70,2013-04-14 14:42:00,
2013-04-14 10:47:00,46.0,37.1,30.03,WSW,247,1.0,10.0,71,0.00,,,0.00,Weather View 32 v70,2013-04-14 14:47:00,
2013-04-14 10:52:00,46.0,38.8,30.03,ESE,112,3.0,10.0,76,0.00,,,0.00,Weather View 32 v70,2013-04-14 14:52:00,
2013-04-14 10:57:00,47.0,36.6,30.03,SSW,202,1.0,10.0,67,0.00,,,0.00,Weather View 32 v70,2013-04-14 14:57:00,
2013-04-14 11:03:00,47.0,37.7,30.03,SE,135,4.0,10.0,70,0.00,,,0.00,Weather View 32 v70,2013-04-14 15:03:00,
2013-04-14 11:08:00,48.0,36.0,30.03,WNW,292,4.0,10.0,63,0.00,,,0.00,Weather View 32 v70,2013-04-14 15:08:00,
2013-04-14 11:13:00,48.0,34.8,30.03,SE,135,0.0,9.0,60,0.00,,,0.00,Weather View 32 v70,2013-04-14 15:13:00,
2013-04-14 11:18:00,49.0,36.5,30.03,ENE,67,4.0,9.0,62,0.00,,,0.00,Weather View 32 v70,2013-04-14 15:18:00,
2013-04-14 11:23:00,50.0,36.2,30.03,SSW,202,5.0,9.0,59,0.00,,,0.00,Weather View 32 v70,2013-04-14 15:23:00,
2013-04-14 11:28:00,51.0,34.9,30.03,WNW,292,2.0,9.0,54,0.00,,,0.00,Weather View 32 v70,2013-04-14 15:28:00,
2013-04-14 11:33:00,52.0,34.9,30.03,West,270,6.0,10.0,52,0.00,,,0.00,Weather View 32 v70,2013-04-14 15:33:00,
2013-04-14 11:38:00,52.0,33.9,30.03,SSW,202,2.0,10.0,50,0.00,,,0.00,Weather View 32 v70,2013-04-14 15:38:00,
2013-04-14 11:43:00,53.0,33.8,30.03,ENE,67,6.0,11.0,48,0.00,,,0.00,Weather View 32 v70,2013-04-14 15:43:00,
2013-04-14 11:48:00,52.0,31.8,30.03,West,270,6.0,11.0,46,0.00,,,0.00,Weather View 32 v70,2013-04-14 15:48:00,
2013-04-14 11:53:00,51.0,32.0,30.03,SSW,202,1.0,11.0,48,0.00,,,0.00,Weather View 32 v70,2013-04-14 15:53:00,
2013-04-14 11:58:00,51.0,32.5,30.03,WNW,292,6.0,11.0,49,0.00,,,0.00,Weather View 32 v70,2013-04-14 15:58:00,
2013-04-14 12:03:00,53.0,31.6,30.03,West,270,7.0,11.0,44,0.00,,,0.00,Weather View 32 v70,2013-04-14 16:03:00,
2013-04-14 12:08:00,53.0,32.7,30.03,SW,225,1.0,11.0,46,0.00,,,0.00,Weather View 32 v70,2013-04-14 16:08:00,
2013-04-14 12:13:00,53.0,31.6,30.03,West,270,6.0,11.0,44,0.00,,,0.00,Weather View 32 v70,2013-04-14 16:13:00,
2013-04-14 12:18:00,52.0,30.7,30.03,East,90,2.0,11.0,44,0.00,,,0.00,Weather View 32 v70,2013-04-14 16:18:00,
2013-04-14 12:23:00,52.0,30.7,30.03,West,270,5.0,14.0,44,0.00,,,0.00,Weather View 32 v70,2013-04-14 16:23:00,
2013-04-14 12:28:00,51.0,32.0,30.03,SSE,157,0.0,14.0,48,0.00,,,0.00,Weather View 32 v70,2013-04-14 16:28:00,
2013-04-14 12:33:00,51.0,30.4,30.03,SSW,202,1.0,14.0,45,0.00,,,0.00,Weather View 32 v70,2013-04-14 16:33:00,
2013-04-14 12:38:00,51.0,30.4,30.03,SW,225,3.0,14.0,45,0.00,,,0.00,Weather View 32 v70,2013-04-14 16:38:00,
2013-04-14 12:43:00,52.0,30.7,30.03,NW,315,1.0,14.0,44,0.00,,,0.00,Weather View 32 v70,2013-04-14 16:43:00,
2013-04-14 12:48:00,52.0,30.2,30.03,ESE,112,1.0,14.0,43,0.00,,,0.00,Weather View 32 v70,2013-04-14 16:48:00,
2013-04-14 12:53:00,52.0,31.3,30.03,East,90,4.0,14.0,45,0.00,,,0.00,Weather View 32 v70,2013-04-14 16:53:00,
2013-04-14 12:58:00,52.0,31.8,30.03,South,180,1.0,14.0,46,0.00,,,0.00,Weather View 32 v70,2013-04-14 16:58:00,
2013-04-14 13:03:00,52.0,30.7,30.03,NW,315,1.0,14.0,44,0.00,,,0.00,Weather View 32 v70,2013-04-14 17:03:00,
2013-04-14 13:08:00,52.0,29.6,30.03,West,270,2.0,14.0,42,0.00,,,0.00,Weather View 32 v70,2013-04-14 17:08:00,
2013-04-14 13:13:00,52.0,30.2,30.03,West,270,3.0,14.0,43,0.00,,,0.00,Weather View 32 v70,2013-04-14 17:13:00,
2013-04-14 13:18:00,52.0,30.7,30.03,WNW,292,6.0,14.0,44,0.00,,,0.00,Weather View 32 v70,2013-04-14 17:18:00,
2013-04-14 13:23:00,51.0,29.8,30.03,SW,225,3.0,13.0,44,0.00,,,0.00,Weather View 32 v70,2013-04-14 17:23:00,
2013-04-14 13:28:00,51.0,30.9,30.03,NNW,337,0.0,13.0,46,0.00,,,0.00,Weather View 32 v70,2013-04-14 17:28:00,
2013-04-14 13:33:00,51.0,29.2,30.03,ENE,67,8.0,13.0,43,0.00,,,0.00,Weather View 32 v70,2013-04-14 17:33:00,
2013-04-14 13:38:00,51.0,29.2,30.03,West,270,8.0,13.0,43,0.00,,,0.00,Weather View 32 v70,2013-04-14 17:38:00,
2013-04-14 13:43:00,52.0,32.4,30.03,East,90,1.0,13.0,47,0.00,,,0.00,Weather View 32 v70,2013-04-14 17:43:00,
2013-04-14 13:48:00,53.0,30.5,30.04,West,270,3.0,13.0,42,0.00,,,0.00,Weather View 32 v70,2013-04-14 17:48:00,
2013-04-14 13:53:00,53.0,29.9,30.04,ENE,67,6.0,11.0,41,0.00,,,0.00,Weather View 32 v70,2013-04-14 17:53:00,
2013-04-14 13:58:00,51.0,29.8,30.04,SSE,157,1.0,11.0,44,0.00,,,0.00,Weather View 32 v70,2013-04-14 17:58:00,
2013-04-14 14:03:00,51.0,29.8,30.04,West,270,2.0,11.0,44,0.00,,,0.00,Weather View 32 v70,2013-04-14 18:03:00,
2013-04-14 14:08:00,51.0,30.4,30.04,WSW,247,1.0,11.0,45,0.00,,,0.00,Weather View 32 v70,2013-04-14 18:08:00,
2013-04-14 14:13:00,51.0,28.7,30.04,WSW,247,0.0,11.0,42,0.00,,,0.00,Weather View 32 v70,2013-04-14 18:13:00,
2013-04-14 14:18:00,51.0,29.2,30.04,SW,225,3.0,11.0,43,0.00,,,0.00,Weather View 32 v70,2013-04-14 18:18:00,
2013-04-14 14:23:00,52.0,29.6,30.04,West,270,1.0,11.0,42,0.00,,,0.00,Weather View 32 v70,2013-04-14 18:23:00,
2013-04-14 14:28:00,52.0,30.7,30.04,West,270,6.0,11.0,44,0.00,,,0.00,Weather View 32 v70,2013-04-14 18:28:00,
2013-04-14 14:33:00,51.0,29.2,30.05,North,360,4.0,11.0,43,0.00,,,0.00,Weather View 32 v70,2013-04-14 18:33:00,
2013-04-14 14:38:00,51.0,29.2,30.05,WNW,292,2.0,11.0,43,0.00,,,0.00,Weather View 32 v70,2013-04-14 18:38:00,
2013-04-14 14:43:00,51.0,30.4,30.05,NE,45,6.0,11.0,45,0.00,,,0.00,Weather View 32 v70,2013-04-14 18:43:00,
2013-04-14 14:48:00,50.0,28.9,30.05,East,90,5.0,13.0,44,0.00,,,0.00,Weather View 32 v70,2013-04-14 18:48:00,
2013-04-14 14:53:00,51.0,29.8,30.05,ENE,67,2.0,13.0,44,0.00,,,0.00,Weather View 32 v70,2013-04-14 18:53:00,
2013-04-14 14:58:00,51.0,29.2,30.05,West,270,3.0,13.0,43,0.00,,,0.00,Weather View 32 v70,2013-04-14 18:58:00,
2013-04-14 15:03:00,52.0,29.6,30.05,East,90,1.0,13.0,42,0.00,,,0.00,Weather View 32 v70,2013-04-14 19:03:00,
2013-04-14 15:08:00,52.0,29.0,30.05,WSW,247,5.0,13.0,41,0.00,,,0.00,Weather View 32 v70,2013-04-14 19:08:00,
2013-04-14 15:13:00,52.0,29.0,30.05,ENE,67,7.0,13.0,41,0.00,,,0.00,Weather View 32 v70,2013-04-14 19:13:00,
2013-04-14 15:18:00,51.0,28.1,30.05,West,270,4.0,13.0,41,0.00,,,0.00,Weather View 32 v70,2013-04-14 19:18:00,
2013-04-14 15:23:00,51.0,29.8,30.05,ENE,67,9.0,13.0,44,0.00,,,0.00,Weather View 32 v70,2013-04-14 19:23:00,
2013-04-14 15:28:00,52.0,29.0,30.05,ENE,67,7.0,13.0,41,0.00,,,0.00,Weather View 32 v70,2013-04-14 19:28:00,
2013-04-14 15:33:00,52.0,29.0,30.05,East,90,1.0,13.0,41,0.00,,,0.00,Weather View 32 v70,2013-04-14 19:33:00,
2013-04-14 15:38:00,53.0,29.9,30.05,South,180,4.0,13.0,41,0.00,,,0.00,Weather View 32 v70,2013-04-14 19:38:00,
2013-04-14 15:43:00,52.0,29.0,30.06,East,90,7.0,13.0,41,0.00,,,0.00,Weather View 32 v70,2013-04-14 19:43:00,
2013-04-14 15:48:00,52.0,29.6,30.05,ENE,67,5.0,13.0,42,0.00,,,0.00,Weather View 32 v70,2013-04-14 19:48:00,
2013-04-14 15:53:00,52.0,27.8,30.06,ESE,112,0.0,13.0,39,0.00,,,0.00,Weather View 32 v70,2013-04-14 19:53:00,
2013-04-14 15:58:00,52.0,29.0,30.06,SSW,202,2.0,13.0,41,0.00,,,0.00,Weather View 32 v70,2013-04-14 19:58:00,
2013-04-14 16:03:00,53.0,29.3,30.07,WSW,247,1.0,13.0,40,0.00,,,0.00,Weather View 32 v70,2013-04-14 20:03:00,
2013-04-14 16:08:00,52.0,29.6,30.07,NE,45,3.0,13.0,42,0.00,,,0.00,Weather View 32 v70,2013-04-14 20:08:00,
2013-04-14 16:13:00,51.0,27.5,30.07,East,90,7.0,13.0,40,0.00,,,0.00,Weather View 32 v70,2013-04-14 20:13:00,
2013-04-14 16:18:00,51.0,26.2,30.07,ENE,67,6.0,14.0,38,0.00,,,0.00,Weather View 32 v70,2013-04-14 20:18:00,
2013-04-14 16:23:00,51.0,27.5,30.07,WNW,292,0.0,14.0,40,0.00,,,0.00,Weather View 32 v70,2013-04-14 20:23:00,
2013-04-14 16:29:00,51.0,28.1,30.07,ENE,67,6.0,14.0,41,0.00,,,0.00,Weather View 32 v70,2013-04-14 20:29:00,
2013-04-14 16:34:00,51.0,29.2,30.07,ENE,67,8.0,14.0,43,0.06,,,0.00,Weather View 32 v70,2013-04-14 20:34:00,
2013-04-14 16:39:00,50.0,28.3,30.07,ENE,67,5.0,16.0,43,0.00,,,0.00,Weather View 32 v70,2013-04-14 20:39:00,
2013-04-14 16:44:00,51.0,29.2,30.08,WNW,292,5.0,16.0,43,0.00,,,0.00,Weather View 32 v70,2013-04-14 20:44:00,
2013-04-14 16:49:00,51.0,28.7,30.08,ENE,67,7.0,16.0,42,0.00,,,0.00,Weather View 32 v70,2013-04-14 20:49:00,
2013-04-14 16:54:00,52.0,29.0,30.08,NE,45,4.0,16.0,41,0.00,,,0.00,Weather View 32 v70,2013-04-14 20:54:00,
2013-04-14 16:59:00,50.0,26.6,30.08,ENE,67,1.0,16.0,40,0.00,,,0.00,Weather View 32 v70,2013-04-14 20:59:00,
2013-04-14 17:04:00,50.0,27.8,30.08,West,270,6.0,16.0,42,0.00,,,0.00,Weather View 32 v70,2013-04-14 21:04:00,
2013-04-14 17:09:00,50.0,28.3,30.09,WSW,247,2.0,16.0,43,0.00,,,0.00,Weather View 32 v70,2013-04-14 21:09:00,
2013-04-14 17:14:00,49.0,27.4,30.09,West,270,7.0,16.0,43,0.00,,,0.00,Weather View 32 v70,2013-04-14 21:14:00,
2013-04-14 17:19:00,50.0,29.5,30.09,WSW,247,1.0,16.0,45,0.00,,,0.00,Weather View 32 v70,2013-04-14 21:19:00,
2013-04-14 17:24:00,50.0,27.8,30.09,WNW,292,4.0,16.0,42,0.00,,,0.00,Weather View 32 v70,2013-04-14 21:24:00,
2013-04-14 17:29:00,49.0,27.4,30.09,WSW,247,2.0,16.0,43,0.00,,,0.00,Weather View 32 v70,2013-04-14 21:29:00,
2013-04-14 17:34:00,50.0,27.8,30.09,East,90,6.0,16.0,42,0.00,,,0.00,Weather View 32 v70,2013-04-14 21:34:00,
2013-04-14 17:39:00,50.0,27.8,30.09,East,90,6.0,15.0,42,0.00,,,0.00,Weather View 32 v70,2013-04-14 21:39:00,
2013-04-14 17:44:00,50.0,28.3,30.09,East,90,2.0,15.0,43,0.00,,,0.00,Weather View 32 v70,2013-04-14 21:44:00,
2013-04-14 17:49:00,50.0,28.9,30.10,ENE,67,2.0,15.0,44,0.00,,,0.00,Weather View 32 v70,2013-04-14 21:49:00,
2013-04-14 17:54:00,51.0,29.2,30.10,NNW,337,3.0,15.0,43,0.00,,,0.00,Weather View 32 v70,2013-04-14 21:54:00,
2013-04-14 17:59:00,50.0,27.8,30.11,ENE,67,3.0,15.0,42,0.00,,,0.00,Weather View 32 v70,2013-04-14 21:59:00,
2013-04-14 18:04:00,50.0,27.8,30.11,East,90,6.0,15.0,42,0.00,,,0.00,Weather View 32 v70,2013-04-14 22:04:00,
2013-04-14 18:09:00,50.0,26.6,30.11,NE,45,4.0,15.0,40,0.00,,,0.00,Weather View 32 v70,2013-04-14 22:09:00,
2013-04-14 18:14:00,50.0,27.8,30.11,ENE,67,5.0,10.0,42,0.00,,,0.00,Weather View 32 v70,2013-04-14 22:14:00,
2013-04-14 18:19:00,49.0,27.4,30.12,ESE,112,4.0,10.0,43,0.00,,,0.00,Weather View 32 v70,2013-04-14 22:19:00,
2013-04-14 18:24:00,49.0,28.0,30.12,ENE,67,6.0,10.0,44,0.00,,,0.00,Weather View 32 v70,2013-04-14 22:24:00,
2013-04-14 18:29:00,48.0,27.6,30.11,ESE,112,0.0,10.0,45,0.00,,,0.00,Weather View 32 v70,2013-04-14 22:29:00,
2013-04-14 18:34:00,48.0,27.6,30.12,West,270,2.0,10.0,45,0.00,,,0.00,Weather View 32 v70,2013-04-14 22:34:00,
2013-04-14 18:39:00,48.0,27.6,30.11,West,270,1.0,10.0,45,0.00,,,0.00,Weather View 32 v70,2013-04-14 22:39:00,
2013-04-14 18:44:00,47.0,26.7,30.11,WNW,292,7.0,12.0,45,0.00,,,0.00,Weather View 32 v70,2013-04-14 22:44:00,
2013-04-14 18:49:00,47.0,27.3,30.12,ENE,67,3.0,12.0,46,0.00,,,0.00,Weather View 32 v70,2013-04-14 22:49:00,
2013-04-14 18:54:00,47.0,27.3,30.12,ENE,67,6.0,12.0,46,0.00,,,0.00,Weather View 32 v70,2013-04-14 22:54:00,
2013-04-14 18:59:00,47.0,27.8,30.11,East,90,6.0,12.0,47,0.00,,,0.00,Weather View 32 v70,2013-04-14 22:59:00,
2013-04-14 19:04:00,47.0,28.3,30.12,ENE,67,2.0,12.0,48,0.00,,,0.00,Weather View 32 v70,2013-04-14 23:04:00,
2013-04-14 19:09:00,46.0,27.4,30.11,ENE,67,3.0,12.0,48,0.00,,,0.00,Weather View 32 v70,2013-04-14 23:09:00,
2013-04-14 19:14:00,46.0,27.4,30.12,WSW,247,1.0,12.0,48,0.00,,,0.00,Weather View 32 v70,2013-04-14 23:14:00,
2013-04-14 19:19:00,46.0,27.9,30.12,West,270,2.0,12.0,49,0.00,,,0.00,Weather View 32 v70,2013-04-14 23:19:00,
2013-04-14 19:24:00,46.0,27.4,30.13,South,180,0.0,12.0,48,0.00,,,0.00,Weather View 32 v70,2013-04-14 23:24:00,
2013-04-14 19:29:00,46.0,28.4,30.13,East,90,1.0,12.0,50,0.00,,,0.00,Weather View 32 v70,2013-04-14 23:29:00,
2013-04-14 19:34:00,45.0,27.5,30.13,East,90,4.0,12.0,50,0.00,,,0.00,Weather View 32 v70,2013-04-14 23:34:00,
2013-04-14 19:39:00,45.0,28.4,30.14,WSW,247,2.0,12.0,52,0.00,,,0.00,Weather View 32 v70,2013-04-14 23:39:00,
2013-04-14 19:44:00,45.0,28.4,30.14,ESE,112,1.0,11.0,52,0.00,,,0.00,Weather View 32 v70,2013-04-14 23:44:00,
2013-04-14 19:49:00,45.0,28.4,30.15,West,270,0.0,11.0,52,0.00,,,0.00,Weather View 32 v70,2013-04-14 23:49:00,
2013-04-14 19:54:00,45.0,28.9,30.15,West,270,2.0,10.0,53,0.00,,,0.00,Weather View 32 v70,2013-04-14 23:54:00,
2013-04-14 19:59:00,44.0,27.9,30.15,West,270,2.0,10.0,53,0.00,,,0.00,Weather View 32 v70,2013-04-14 23:59:00,
2013-04-14 20:04:00,44.0,28.8,30.15,ENE,67,0.0,10.0,55,0.00,,,0.00,Weather View 32 v70,2013-04-15 00:04:00,
2013-04-14 20:09:00,44.0,29.3,30.15,East,90,0.0,10.0,56,0.00,,,0.00,Weather View 32 v70,2013-04-15 00:09:00,
2013-04-14 20:14:00,44.0,29.7,30.15,SE,135,1.0,10.0,57,0.00,,,0.00,Weather View 32 v70,2013-04-15 00:14:00,
2013-04-14 20:19:00,43.0,28.4,30.16,WNW,292,2.0,7.0,56,0.00,,,0.00,Weather View 32 v70,2013-04-15 00:19:00,
2013-04-14 20:24:00,43.0,28.4,30.16,WNW,292,0.0,6.0,56,0.00,,,0.00,Weather View 32 v70,2013-04-15 00:24:00,
2013-04-14 20:29:00,43.0,28.8,30.16,WNW,292,0.0,6.0,57,0.00,,,0.00,Weather View 32 v70,2013-04-15 00:29:00,
2013-04-14 20:34:00,43.0,28.8,30.17,WNW,292,0.0,6.0,57,0.00,,,0.00,Weather View 32 v70,2013-04-15 00:34:00,
2013-04-14 20:39:00,42.0,28.3,30.17,WSW,247,0.0,6.0,58,0.00,,,0.00,Weather View 32 v70,2013-04-15 00:39:00,
2013-04-14 20:44:00,42.0,28.7,30.17,WSW,247,0.0,6.0,59,0.00,,,0.00,Weather View 32 v70,2013-04-15 00:44:00,
2013-04-14 20:49:00,41.0,28.6,30.17,WSW,247,0.0,5.0,61,0.00,,,0.00,Weather View 32 v70,2013-04-15 00:49:00,
2013-04-14 20:54:00,41.0,28.6,30.17,WSW,247,0.0,5.0,61,0.00,,,0.00,Weather View 32 v70,2013-04-15 00:54:00,
2013-04-14 20:59:00,40.0,29.2,30.18,WSW,247,0.0,5.0,65,0.00,,,0.00,Weather View 32 v70,2013-04-15 00:59:00,
2013-04-14 21:04:00,40.0,30.6,30.18,WSW,247,0.0,5.0,69,0.00,,,0.00,Weather View 32 v70,2013-04-15 01:04:00,
2013-04-14 21:09:00,39.0,31.1,30.19,WSW,247,0.0,5.0,73,0.00,,,0.00,Weather View 32 v70,2013-04-15 01:09:00,
2013-04-14 21:14:00,39.0,31.7,30.19,WSW,247,0.0,5.0,75,0.00,,,0.00,Weather View 32 v70,2013-04-15 01:14:00,
2013-04-14 21:19:00,39.0,32.7,30.19,WSW,247,0.0,3.0,78,0.00,,,0.00,Weather View 32 v70,2013-04-15 01:19:00,
2013-04-14 21:24:00,39.0,33.3,30.19,WSW,247,0.0,1.0,80,0.00,,,0.00,Weather View 32 v70,2013-04-15 01:24:00,
2013-04-14 21:29:00,38.0,35.3,30.19,WSW,247,0.0,1.0,90,0.00,,,0.00,Weather View 32 v70,2013-04-15 01:29:00,
2013-04-14 21:34:00,38.0,35.3,30.19,WSW,247,0.0,0.0,90,0.00,,,0.00,Weather View 32 v70,2013-04-15 01:34:00,
2013-04-14 21:39:00,38.0,35.3,30.19,WSW,247,0.0,0.0,90,0.00,,,0.00,Weather View 32 v70,2013-04-15 01:39:00,
2013-04-14 21:44:00,37.0,34.6,30.19,WSW,247,0.0,0.0,91,0.00,,,0.00,Weather View 32 v70,2013-04-15 01:44:00,
2013-04-14 21:49:00,37.0,34.6,30.19,WSW,247,0.0,0.0,91,0.00,,,0.00,Weather View 32 v70,2013-04-15 01:49:00,
2013-04-14 21:54:00,37.0,26.3,30.19,WSW,247,0.0,0.0,65,0.00,,,0.00,Weather View 32 v70,2013-04-15 01:54:00,
2013-04-14 21:59:00,37.0,26.7,30.19,WSW,247,0.0,0.0,66,0.00,,,0.00,Weather View 32 v70,2013-04-15 01:59:00,
2013-04-14 22:04:00,37.0,26.7,30.19,WSW,247,0.0,0.0,66,0.00,,,0.00,Weather View 32 v70,2013-04-15 02:04:00,
2013-04-14 22:09:00,37.0,27.1,30.19,WSW,247,0.0,0.0,67,0.00,,,0.00,Weather View 32 v70,2013-04-15 02:09:00,
2013-04-14 22:14:00,37.0,27.1,30.19,WSW,247,0.0,0.0,67,0.00,,,0.00,Weather View 32 v70,2013-04-15 02:14:00,
2013-04-14 22:19:00,36.0,24.6,30.19,WSW,247,0.0,0.0,63,0.00,,,0.00,Weather View 32 v70,2013-04-15 02:19:00,
2013-04-14 22:24:00,36.0,18.7,30.19,WSW,247,0.0,0.0,49,0.00,,,0.00,Weather View 32 v70,2013-04-15 02:24:00,
2013-04-14 22:29:00,36.0,20.5,30.19,WSW,247,0.0,0.0,53,0.00,,,0.00,Weather View 32 v70,2013-04-15 02:29:00,
2013-04-14 22:34:00,36.0,21.8,30.19,WSW,247,0.0,0.0,56,0.00,,,0.00,Weather View 32 v70,2013-04-15 02:34:00,
2013-04-14 22:39:00,36.0,19.1,30.19,WSW,247,0.0,0.0,50,0.00,,,0.00,Weather View 32 v70,2013-04-15 02:39:00,
2013-04-14 22:44:00,36.0,20.5,30.19,WSW,247,0.0,0.0,53,0.00,,,0.00,Weather View 32 v70,2013-04-15 02:44:00,
2013-04-14 22:49:00,35.0,19.1,30.19,WSW,247,0.0,0.0,52,0.00,,,0.00,Weather View 32 v70,2013-04-15 02:49:00,
2013-04-14 22:54:00,35.0,20.0,30.19,WSW,247,0.0,0.0,54,0.00,,,0.00,Weather View 32 v70,2013-04-15 02:54:00,
2013-04-14 22:59:00,35.0,18.7,30.19,WSW,247,0.0,0.0,51,0.00,,,0.00,Weather View 32 v70,2013-04-15 02:59:00,
2013-04-14 23:05:00,35.0,20.0,30.19,WSW,247,0.0,0.0,54,0.00,,,0.00,Weather View 32 v70,2013-04-15 03:05:00,
2013-04-14 23:10:00,34.0,20.4,30.19,WSW,247,0.0,0.0,57,0.00,,,0.00,Weather View 32 v70,2013-04-15 03:10:00,
2013-04-14 23:15:00,34.0,20.8,30.19,WSW,247,0.0,0.0,58,0.00,,,0.00,Weather View 32 v70,2013-04-15 03:15:00,
2013-04-14 23:20:00,33.0,19.0,30.19,WSW,247,0.0,0.0,56,0.00,,,0.00,Weather View 32 v70,2013-04-15 03:20:00,
2013-04-14 23:25:00,33.0,19.0,30.19,WSW,247,0.0,0.0,56,0.00,,,0.00,Weather View 32 v70,2013-04-15 03:25:00,
2013-04-14 23:30:00,33.0,19.8,30.20,WSW,247,0.0,0.0,58,0.00,,,0.00,Weather View 32 v70,2013-04-15 03:30:00,
2013-04-14 23:35:00,33.0,18.6,30.20,WSW,247,0.0,0.0,55,0.00,,,0.00,Weather View 32 v70,2013-04-15 03:35:00,
2013-04-14 23:40:00,33.0,18.2,30.20,WSW,247,0.0,0.0,54,0.00,,,0.00,Weather View 32 v70,2013-04-15 03:40:00,
2013-04-14 23:45:00,32.0,17.6,30.20,WSW,247,0.0,0.0,55,0.00,,,0.00,Weather View 32 v70,2013-04-15 03:45:00,
2013-04-14 23:50:00,32.0,18.5,30.20,WSW,247,0.0,0.0,57,0.00,,,0.00,Weather View 32 v70,2013-04-15 03:50:00,
2013-04-14 23:55:00,32.0,16.8,30.21,WSW,247,0.0,0.0,53,0.00,,,0.00,Weather View 32 v70,2013-04-15 03:55:00,